Regional Weather Roundup
Issued by NWS

Home | Current Version | Previous Version | Graphics & Text | Print | Product List | Glossary On
Versions: 1 2 3 4 5 6 7 8 9 10 11 12 13 14 15 16 17 18 19 20 21 22 23 24 25 26 27 28 29 30 31 32 33 34 35 36 37 38 39 40 41 42 43 44 45 46 47 48 49 50
000
ASUS45 KBOU 070410
RWRCO

WEATHER ROUNDUP FOR COLORADO
NATIONAL WEATHER SERVICE DENVER/BOULDER CO
1000 PM MDT MON JUL 06 2015

NOTE: "FAIR" INDICATES FEW OR NO CLOUDS BELOW 12000 FEET WITH NO
SIGNIFICANT WEATHER AND/OR OBSTRUCTIONS TO VISIBILITY.

COZ001>005-013-030-031-070500-
...NORTHWEST COLORADO...

CITY           SKY/WX    TMP DP  RH WIND       PRES   REMARKS
CRAIG          CLOUDY    61  53  75 SE7       30.20R
HAYDEN           N/A    N/A N/A N/A MISG        N/A  THUNDER
MEEKER         TSTM      65  49  56 CALM      30.22R
MOUNT WERNER   NOT AVBL
STEAMBOAT SPGS CLOUDY    62  53  73 CALM      30.24R
WALDEN         CLOUDY    55  46  71 NE3       30.34R
$$

COZ006>008-011-070500-
...WEST CENTRAL VALLEYS...

CITY           SKY/WX    TMP DP  RH WIND       PRES   REMARKS
GRAND JUNCTION LGT RAIN  69  55  60 SW8       30.11R
MONTROSE       CLOUDY    74  47  38 NW6       30.17R
EAGLE          CLOUDY    66  52  59 W5        30.25R
RIFLE          MOCLDY    73  47  39 NW12      30.14R THUNDER
DELTA          CLOUDY    76  44  31 W16       30.10S
NUCLA          CLOUDY    66  46  48 NW10      30.22S
$$

COZ017>023-064>068-070500-
...SOUTHWEST COLORADO...

CITY           SKY/WX    TMP DP  RH WIND       PRES   REMARKS
DURANGO        CLOUDY    63  55  75 CALM      30.22R
CORTEZ         CLEAR     64  53  67 E7        30.17R
PAGOSA SPRINGS CLOUDY    60  56  89 CALM      30.30R
TELLURIDE      MOCLDY    57  47  68 CALM      30.41S
WOLF CREEK PAS NOT AVBL
$$

COZ009-010-012-014-032>034-037-058>063-070500-
...CENTRAL COLORADO...

CITY           SKY/WX    TMP DP  RH WIND       PRES   REMARKS
ASPEN          PTCLDY    56  48  74 SW8       30.30R
BUENA VISTA    CLOUDY    55  50  83 SE9       30.38S
COPPER MTN     PTCLDY    46  41  81 S13       30.61R
BERTHOUD PASS  CLOUDY    37  30  75 SE3       30.66R HAZE
COTTONWOOD PAS NOT AVBL
GUNNISON       PTCLDY    61  45  55 N9        30.32R
KREMMLING      PTCLDY    55  50  82 CALM      30.31R
LEADVILLE      CLOUDY    48  48 100 S9        30.47R
MONARCH PASS   FOG       43  41  93 NE12      30.69S VSB<1/4
SALIDA         CLOUDY    55  52  88 SE8       30.44R
SUNLIGHT       PTCLDY    52  46  82 CALM      30.54R
WILKERSON PASS CLOUDY    43  41  93 CALM      30.60R
$$

COZ069>075-070500-
...SAN LUIS VALLEY/SANGRE DE CRISTO MOUNTAINS...

CITY           SKY/WX    TMP DP  RH WIND       PRES   REMARKS
ALAMOSA        MOCLDY    56  52  86 SE7       30.32S
LA VETA PASS   LGT RAIN  45  43  93 MISG      30.50F VSB 1/2
SAGUACHE       MOCLDY    54  52  94 CALM      30.37R
$$

COZ035-036-038>040-070500-
...NORTHERN COLORADO FRONT RANGE...

CITY           SKY/WX    TMP DP  RH WIND       PRES   REMARKS
DENVER INTL AP CLOUDY    61  54  77 E6        30.29R FOG
DMNS CITY PARK   N/A     60  58  93 SW3       30.30R
AURORA         CLOUDY    60  55  82 E5        30.32R
FRONT RANGE AP NOT AVBL
ERIE MUNI ARPT LGT RAIN  60  59  96 N3        30.29R
BOULDER MUN AP CLOUDY    59  59 100 CALM      30.30R FOG
CENTENNIAL     CLOUDY    60  54  80 E5        30.31R
BROOMFIELD     DRIZZLE   59  57  94 W3        30.32R
FORT COLLINS   MOCLDY    61  57  88 CALM      30.30R
LONGMONT       RAIN      62  59  90 CALM      30.31R
$$

COZ041-046-047-076>085-087-088-070500-
...PIKES PEAK/PALMER DIVIDE AND SOUTHERN FOOTHILLS...

CITY           SKY/WX    TMP DP  RH WIND       PRES   REMARKS
COLO. SPRINGS  CLOUDY    60  53  77 NE3       30.34R
A. F. ACADEMY  LGT RAIN  57  55  94 SW6       30.35R FOG
ELLICOTT       CLOUDY   N/A N/A N/A E6        30.32R
FALCON         RAIN      56  54  93 E6        30.38R
FORT CARSON    DRIZZLE   58  56  92 N5        30.32R
LIMON          CLOUDY    60  53  77 E5        30.30R HAZE
MONUMENT HILL  CLOUDY    54  52  94 MISG      30.38R FOG
TRINIDAD       CLOUDY    61  58  90 NE6       30.30R
$$

COZ042>045-048>051-090-091-070500-
...NORTHEAST COLORADO...

CITY           SKY/WX    TMP DP  RH WIND       PRES   REMARKS
GREELEY ARPT   CLOUDY    63  57  82 CALM      30.29R
AKRON          CLOUDY    63  52  67 E9        30.27R HAZE
BURLINGTON     CLOUDY    64  52  64 NE9       30.24S HAZE
WRAY           CLOUDY    67  53  59 NE6       30.24R
STERLING       CLOUDY    66  54  63 E5          N/A  HAZE
HOLYOKE        CLOUDY    66  54  63 E7        30.25R
FORT MORGAN    CLOUDY    64  52  65 E7        30.28R
$$

COZ086-089-092>099-070500-
...SOUTHEAST COLORADO...

CITY           SKY/WX    TMP DP  RH WIND       PRES   REMARKS
PUEBLO         CLOUDY    66  60  81 VRB3      30.25R
LA JUNTA       CLOUDY    69  55  60 NE9       30.23R
LAMAR          CLOUDY    70  55  59 NE16      30.17R HAZE
SPRINGFIELD      N/A     65  58  78 NE9       30.20R
$$



USA.gov is the U.S. government's official web portal to all federal, state and local government web resources and services.